Simultaneous Nadir Overpasses (SNOs) Predictions

Prediction of SNOs between LANDSAT-8 and NOAA-19 Satellite Orbit:

Table of predicted SNOs for the next 14.0 days since TLE Epoch: 11/28/2014
Index Date (LANDSAT-8) Time (LANDSAT-8) Lat,Lon (LANDSAT-8) SZA (LANDSAT-8 ) Date (NOAA-19) Time (NOAA-19) Lat,Lon (NOAA-19) SZA (NOAA-19 ) Distance(km) Time Diff (sec)
1 11/30/2014 03:40:06 -72.49, -54.87 85.98 11/30/2014 03:39:33 -72.49, -54.81 85.98 2.09 33
2 11/30/2014 04:29:33 72.40, 112.61 93.94 11/30/2014 04:30:29 72.40, 112.64 93.94 1.18 56
3 12/02/2014 08:24:22 -72.54,-125.84 85.58 12/02/2014 08:23:13 -72.57,-125.86 85.56 3.11 69
4 12/02/2014 09:13:49 72.45, 41.63 94.33 12/02/2014 09:14:08 72.44, 41.66 94.33 1.45 19
5 12/04/2014 13:58:05 72.48, -29.39 94.67 12/04/2014 13:57:47 72.50, -29.33 94.69 3.07 18
6 12/04/2014 14:47:36 -72.31, 137.93 85.51 12/04/2014 14:48:48 -72.25, 138.40 85.55 16.91 72
7 12/06/2014 18:42:20 72.53,-100.36 94.99 12/06/2014 18:41:26 72.56,-100.34 95.02 3.42 54
8 12/06/2014 19:31:49 -72.47, 67.16 85.08 12/06/2014 19:32:30 -72.46, 67.10 85.08 2.12 41
9 12/08/2014 23:26:24 73.14,-170.24 95.85 12/08/2014 23:25:16 73.18,-172.57 95.87 75.22 68
10 12/09/2014 00:16:04 -72.49, -3.86 84.81 12/09/2014 00:16:08 -72.48, -3.81 84.83 2.52 4
11 12/09/2014 01:05:44 71.70, 162.38 94.39 12/09/2014 01:06:49 71.66, 165.06 94.39 93.60 65
12 12/11/2014 05:00:18 -72.55, -74.82 84.56 12/11/2014 04:59:47 -72.56, -74.85 84.55 1.30 31




NCC Satellite Simultaneous Nadir Overpasses (SNOs) Prediction Service
